This is the latest recevied weather packets stored in our database for station/object KD4PMP. If no packets are shown the sender has not sent any weather packets the latest 10 day(s).
| Time | Temp. | Humidity | Pressure | Rain* | Wind** | Luminosity | Snow |
|---|---|---|---|---|---|---|---|
| 1777906819 | 22.22° C | 59% | 1013.3 hPa | 0 mm | - | - | - |
| 1777906218 | 21.67° C | 57% | 1013.4 hPa | 0 mm | - | - | - |
| 1777905618 | 21.67° C | 59% | 1013.3 hPa | 0 mm | - | - | - |
| 1777905018 | 21.11° C | 60% | 1013.4 hPa | 0 mm | - | - | - |
| 1777904417 | 20.56° C | 60% | 1013.5 hPa | 0 mm | - | - | - |
| 1777903817 | 20° C | 63% | 1013.6 hPa | 0 mm | - | - | - |
| 1777903217 | 19.44° C | 64% | 1013.7 hPa | 0 mm | - | - | - |
| 1777902617 | 18.89° C | 65% | 1013.9 hPa | 0 mm | - | - | - |
| 1777902017 | 17.78° C | 66% | 1013.9 hPa | 0 mm | - | - | - |
| 1777901416 | 17.22° C | 68% | 1014 hPa | 0 mm | - | - | - |
| 1777900818 | 16.67° C | 68% | 1014 hPa | 0 mm | - | - | - |
| 1777900216 | 16.11° C | 69% | 1013.9 hPa | 0 mm | - | - | - |
| 1777899615 | 15.56° C | 70% | 1013.9 hPa | 0 mm | - | - | - |
| 1777899015 | 15° C | 71% | 1014 hPa | 0 mm | - | - | - |
| 1777898415 | 14.44° C | 72% | 1013.9 hPa | 0 mm | - | - | - |
| 1777897814 | 13.89° C | 72% | 1013.8 hPa | 0 mm | - | - | - |
| 1777897214 | 13.33° C | 73% | 1013.9 hPa | 0 mm | - | - | - |
| 1777896614 | 13.33° C | 73% | 1013.8 hPa | 0 mm | - | - | - |
| 1777896013 | 12.78° C | 73% | 1013.7 hPa | 0 mm | - | - | - |
| 1777895413 | 12.22° C | 74% | 1013.7 hPa | 0 mm | - | - | - |
| 1777894813 | 12.22° C | 74% | 1013.7 hPa | 0 mm | - | - | - |
| 1777894213 | 12.22° C | 74% | 1013.7 hPa | 0 mm | - | - | - |
| 1777893612 | 12.22° C | 74% | 1013.5 hPa | 0 mm | - | - | - |
| 1777893012 | 12.22° C | 74% | 1013.4 hPa | 0 mm | - | - | - |
| 1777892412 | 12.22° C | 74% | 1013.3 hPa | 0 mm | - | - | - |
* Rain latest hour (hover to see other rain measurements)
** Current wind speed in m/s (hover to see current wind gust speed)